ARG1046 SAWC-SAWH

Flight info

Callsign ARG1046
Flight time 1h 5m
Altitude 37000
Route DEVIS2D DEVIS UW52 GAL UW42 GRA DCT DABLI DABLI1Q
Aircraft B38M/M-SDE1FGHILORVWXY/HB1

Departure

Time 2026-04-20 19:34
Airport El Calafate - Commander Armando Tola International Airport (SAWC)

Arrival

Time 2026-04-20 20:39
Airport Ushuaia - Malvinas Argentinas International Airport (SAWH)
Time Latitude Longitude Altitude Speed Heading
2026-04-20 17:26 -50.28327 -72.05317 643 ft 0 kts 232°
2026-04-20 17:26 -50.28325 -72.05314 643 ft 0 kts 232°
2026-04-20 19:16 -50.28325 -72.05313 671 ft 1 kts 232°
2026-04-20 19:16 -50.28315 -72.05295 643 ft 3 kts 220°
2026-04-20 19:16 -50.28298 -72.05279 643 ft 3 kts 204°
2026-04-20 19:17 -50.28279 -72.05267 643 ft 3 kts 199°
2026-04-20 19:17 -50.28261 -72.05256 643 ft 3 kts 214°
2026-04-20 19:17 -50.28251 -72.05241 643 ft 2 kts 259°
2026-04-20 19:17 -50.28251 -72.05237 643 ft 0 kts 265°
2026-04-20 19:26 -50.28251 -72.05246 645 ft 4 kts 266°
2026-04-20 19:27 -50.28254 -72.05318 643 ft 11 kts 266°
2026-04-20 19:27 -50.28234 -72.05393 644 ft 8 kts 337°
2026-04-20 19:27 -50.28177 -72.05406 644 ft 9 kts 355°
2026-04-20 19:27 -50.28137 -72.05411 644 ft 2 kts 356°
2026-04-20 19:28 -50.28120 -72.05413 644 ft 0 kts 356°
2026-04-20 19:28 -50.28119 -72.05413 644 ft 0 kts 356°
2026-04-20 19:29 -50.28118 -72.05413 644 ft 1 kts 356°
2026-04-20 19:30 -50.28075 -72.05417 645 ft 12 kts 356°
2026-04-20 19:30 -50.28017 -72.05278 645 ft 23 kts 85°
2026-04-20 19:30 -50.28002 -72.05014 646 ft 25 kts 85°
2026-04-20 19:30 -50.27985 -72.04744 647 ft 26 kts 85°
2026-04-20 19:31 -50.27967 -72.04452 645 ft 28 kts 86°
2026-04-20 19:31 -50.27949 -72.04139 643 ft 30 kts 84°
2026-04-20 19:31 -50.27931 -72.03831 642 ft 20 kts 85°
2026-04-20 19:31 -50.27962 -72.03654 644 ft 12 kts 103°
2026-04-20 19:32 -50.27942 -72.03556 646 ft 8 kts 13°
2026-04-20 19:32 -50.27919 -72.03593 644 ft 5 kts 280°
2026-04-20 19:32 -50.27920 -72.03655 644 ft 0 kts 261°
2026-04-20 19:33 -50.27921 -72.03657 644 ft 2 kts 262°
2026-04-20 19:33 -50.27927 -72.03760 643 ft 27 kts 264°
2026-04-20 19:34 -50.27970 -72.04476 646 ft 103 kts 264°
2026-04-20 19:34 -50.28052 -72.05927 686 ft 159 kts 266°
2026-04-20 19:34 -50.28157 -72.07697 1365 ft 168 kts 261°
2026-04-20 19:34 -50.28292 -72.09542 2182 ft 178 kts 268°
2026-04-20 19:35 -50.28429 -72.11630 2558 ft 208 kts 268°
2026-04-20 19:35 -50.28566 -72.13997 3195 ft 225 kts 269°
2026-04-20 19:35 -50.28700 -72.16485 4029 ft 235 kts 268°
2026-04-20 19:35 -50.28828 -72.19086 4941 ft 244 kts 269°
2026-04-20 19:36 -50.28958 -72.21738 5948 ft 246 kts 268°
2026-04-20 19:36 -50.29121 -72.24425 6898 ft 247 kts 268°
2026-04-20 19:36 -50.29288 -72.27036 8115 ft 240 kts 268°
2026-04-20 19:36 -50.29443 -72.29621 9140 ft 239 kts 269°
2026-04-20 19:37 -50.29592 -72.32236 9994 ft 244 kts 269°
2026-04-20 19:37 -50.29744 -72.34905 10741 ft 250 kts 269°
2026-04-20 19:37 -50.29910 -72.37638 11532 ft 254 kts 266°
2026-04-20 19:37 -50.30528 -72.40284 12372 ft 268 kts 243°
2026-04-20 19:38 -50.31882 -72.42405 13184 ft 287 kts 221°
2026-04-20 19:38 -50.33625 -72.44027 13950 ft 294 kts 220°
2026-04-20 19:38 -50.35398 -72.45669 14663 ft 302 kts 216°
2026-04-20 19:38 -50.37504 -72.46696 14991 ft 339 kts 192°
2026-04-20 19:39 -50.39940 -72.46158 15425 ft 373 kts 164°
2026-04-20 19:39 -50.42153 -72.43835 15944 ft 397 kts 136°
2026-04-20 19:39 -50.43614 -72.40097 16495 ft 411 kts 109°
2026-04-20 19:39 -50.44295 -72.35710 17075 ft 418 kts 103°
2026-04-20 19:40 -50.45097 -72.31306 17743 ft 422 kts 107°
2026-04-20 19:40 -50.45981 -72.26897 18368 ft 425 kts 108°
2026-04-20 19:40 -50.46903 -72.22472 18968 ft 428 kts 109°
2026-04-20 19:40 -50.47845 -72.18027 19568 ft 431 kts 109°
2026-04-20 19:41 -50.48803 -72.13552 20133 ft 434 kts 109°
2026-04-20 19:41 -50.49771 -72.09044 20674 ft 437 kts 109°
2026-04-20 19:41 -50.50741 -72.04522 21332 ft 437 kts 109°
2026-04-20 19:41 -50.51715 -71.99977 21854 ft 441 kts 109°
2026-04-20 19:42 -50.52697 -71.95384 22360 ft 445 kts 109°
2026-04-20 19:42 -50.53683 -71.90757 22916 ft 448 kts 109°
2026-04-20 19:42 -50.54673 -71.86104 23398 ft 452 kts 109°
2026-04-20 19:42 -50.55671 -71.81405 23820 ft 454 kts 110°
2026-04-20 19:43 -50.56995 -71.76907 24226 ft 453 kts 126°
2026-04-20 19:43 -50.58943 -71.73033 24635 ft 453 kts 134°
2026-04-20 19:43 -50.60999 -71.69249 25053 ft 456 kts 134°
2026-04-20 19:43 -50.63087 -71.65459 25425 ft 460 kts 135°
2026-04-20 19:44 -50.65201 -71.61657 25829 ft 462 kts 135°
2026-04-20 19:44 -50.67331 -71.57840 26238 ft 465 kts 135°
2026-04-20 19:44 -50.69446 -71.54050 26628 ft 468 kts 135°
2026-04-20 19:44 -50.71601 -71.50187 27016 ft 470 kts 135°
2026-04-20 19:45 -50.73766 -71.46299 27406 ft 473 kts 135°
2026-04-20 19:45 -50.75942 -71.42385 27787 ft 475 kts 135°
2026-04-20 19:45 -50.78129 -71.38446 28164 ft 478 kts 135°
2026-04-20 19:45 -50.80326 -71.34484 28573 ft 480 kts 135°
2026-04-20 19:46 -50.82528 -71.30505 28973 ft 482 kts 135°
2026-04-20 19:46 -50.84743 -71.26498 29329 ft 484 kts 135°
2026-04-20 19:46 -50.86964 -71.22472 29673 ft 487 kts 135°
2026-04-20 19:46 -50.89195 -71.18423 29975 ft 489 kts 135°
2026-04-20 19:47 -50.91430 -71.14357 30263 ft 491 kts 135°
2026-04-20 19:47 -50.93678 -71.10264 30534 ft 493 kts 135°
2026-04-20 19:47 -50.95933 -71.06152 30799 ft 495 kts 135°
2026-04-20 19:47 -50.98190 -71.02030 31104 ft 497 kts 135°
2026-04-20 19:48 -51.00347 -70.97674 31344 ft 504 kts 125°
2026-04-20 19:48 -51.01857 -70.92640 31628 ft 510 kts 108°
2026-04-20 19:48 -51.02563 -70.87109 31872 ft 513 kts 97°
2026-04-20 19:48 -51.03035 -70.81484 32084 ft 516 kts 97°
2026-04-20 19:49 -51.03507 -70.75799 32367 ft 518 kts 97°
2026-04-20 19:49 -51.03957 -70.70133 32668 ft 519 kts 97°
2026-04-20 19:49 -51.04399 -70.64438 32960 ft 520 kts 97°
2026-04-20 19:49 -51.04839 -70.58737 33316 ft 519 kts 97°
2026-04-20 19:50 -51.05442 -70.53089 33659 ft 518 kts 106°
2026-04-20 19:50 -51.06778 -70.47825 33977 ft 511 kts 124°
2026-04-20 19:50 -51.08795 -70.43237 34253 ft 507 kts 131°
2026-04-20 19:50 -51.10922 -70.38740 34490 ft 508 kts 131°
2026-04-20 19:51 -51.13058 -70.34268 34805 ft 507 kts 131°
2026-04-20 19:51 -51.15200 -70.29823 35125 ft 505 kts 131°
2026-04-20 19:51 -51.17342 -70.25388 35404 ft 505 kts 131°
2026-04-20 19:51 -51.19482 -70.20953 35703 ft 504 kts 131°
2026-04-20 19:52 -51.21618 -70.16520 35966 ft 504 kts 131°
2026-04-20 19:52 -51.23753 -70.12084 36235 ft 504 kts 131°
2026-04-20 19:52 -51.25884 -70.07647 36458 ft 503 kts 131°
2026-04-20 19:52 -51.28006 -70.03221 36715 ft 503 kts 131°
2026-04-20 19:53 -51.30130 -69.98783 36753 ft 502 kts 131°
2026-04-20 19:53 -51.34323 -69.90000 36720 ft 499 kts 131°
2026-04-20 19:54 -51.38531 -69.81155 36719 ft 500 kts 131°
2026-04-20 19:54 -51.42731 -69.72300 36719 ft 500 kts 131°
2026-04-20 19:55 -51.46927 -69.63420 36744 ft 500 kts 131°
2026-04-20 19:55 -51.51108 -69.54542 36730 ft 497 kts 131°
2026-04-20 19:56 -51.54599 -69.47105 36731 ft 498 kts 131°
2026-04-20 19:56 -51.59474 -69.36823 36741 ft 495 kts 136°
2026-04-20 19:56 -51.61991 -69.33178 36724 ft 481 kts 153°
2026-04-20 19:57 -51.64912 -69.30706 36766 ft 473 kts 162°
2026-04-20 19:57 -51.70926 -69.26315 36748 ft 474 kts 162°
2026-04-20 19:58 -51.76974 -69.22042 36734 ft 474 kts 163°
2026-04-20 19:58 -51.83025 -69.17799 36733 ft 474 kts 163°
2026-04-20 19:59 -51.89077 -69.13546 36745 ft 474 kts 163°
2026-04-20 19:59 -51.95109 -69.09295 36723 ft 472 kts 163°
2026-04-20 20:00 -52.01135 -69.05035 36726 ft 472 kts 163°
2026-04-20 20:00 -52.07164 -69.00760 36730 ft 472 kts 163°
2026-04-20 20:01 -52.13186 -68.96478 36742 ft 472 kts 163°
2026-04-20 20:01 -52.19187 -68.92199 36728 ft 471 kts 162°
2026-04-20 20:02 -52.25185 -68.87908 36731 ft 471 kts 162°
2026-04-20 20:02 -52.31176 -68.83610 36730 ft 471 kts 162°
2026-04-20 20:03 -52.37185 -68.79287 36743 ft 471 kts 163°
2026-04-20 20:03 -52.43173 -68.74965 36728 ft 471 kts 163°
2026-04-20 20:04 -52.49170 -68.70624 36731 ft 471 kts 163°
2026-04-20 20:04 -52.55163 -68.66273 36729 ft 471 kts 163°
2026-04-20 20:05 -52.61150 -68.61914 36721 ft 471 kts 163°
2026-04-20 20:05 -52.67110 -68.57560 36725 ft 472 kts 163°
2026-04-20 20:06 -52.73112 -68.53165 36727 ft 472 kts 163°
2026-04-20 20:06 -52.79111 -68.48759 36739 ft 472 kts 163°
2026-04-20 20:07 -52.85099 -68.44349 36717 ft 470 kts 163°
2026-04-20 20:07 -52.91080 -68.39934 36717 ft 471 kts 163°
2026-04-20 20:08 -52.97065 -68.35502 36717 ft 471 kts 163°
2026-04-20 20:08 -53.02062 -68.31792 36749 ft 471 kts 163°
2026-04-20 20:09 -53.08039 -68.27342 36705 ft 470 kts 163°
2026-04-20 20:09 -53.14017 -68.22877 36709 ft 471 kts 163°
2026-04-20 20:10 -53.19994 -68.18399 36708 ft 471 kts 163°
2026-04-20 20:10 -53.22973 -68.16161 36544 ft 466 kts 163°
2026-04-20 20:10 -53.25922 -68.13946 35878 ft 465 kts 164°
2026-04-20 20:10 -53.28893 -68.11707 34969 ft 472 kts 163°
2026-04-20 20:11 -53.31898 -68.09439 34119 ft 476 kts 163°
2026-04-20 20:11 -53.34925 -68.07152 33351 ft 478 kts 163°
2026-04-20 20:11 -53.37945 -68.04867 32715 ft 474 kts 163°
2026-04-20 20:11 -53.40894 -68.02632 32246 ft 468 kts 163°
2026-04-20 20:12 -53.43843 -68.00393 31772 ft 463 kts 163°
2026-04-20 20:12 -53.46802 -67.98144 31236 ft 459 kts 163°
2026-04-20 20:12 -53.49656 -67.95972 30718 ft 456 kts 163°
2026-04-20 20:13 -53.55406 -67.91583 29610 ft 451 kts 163°
2026-04-20 20:13 -53.58254 -67.89405 29012 ft 448 kts 163°
2026-04-20 20:13 -53.61076 -67.87244 28496 ft 443 kts 163°
2026-04-20 20:13 -53.63867 -67.85103 28006 ft 439 kts 163°
2026-04-20 20:14 -53.66631 -67.82980 27499 ft 435 kts 163°
2026-04-20 20:14 -53.69377 -67.80869 27005 ft 431 kts 163°
2026-04-20 20:14 -53.72097 -67.78775 26539 ft 428 kts 163°
2026-04-20 20:14 -53.74795 -67.76695 26030 ft 425 kts 163°
2026-04-20 20:15 -53.77526 -67.74956 25420 ft 413 kts 176°
2026-04-20 20:15 -53.80338 -67.74435 24874 ft 404 kts 183°
2026-04-20 20:15 -53.83125 -67.74065 24468 ft 399 kts 184°
2026-04-20 20:15 -53.85887 -67.73727 24010 ft 397 kts 184°
2026-04-20 20:16 -53.88636 -67.73415 23549 ft 395 kts 184°
2026-04-20 20:16 -53.91376 -67.73116 23039 ft 394 kts 184°
2026-04-20 20:16 -53.94101 -67.72823 22518 ft 392 kts 184°
2026-04-20 20:16 -53.96810 -67.72533 22064 ft 388 kts 184°
2026-04-20 20:17 -53.99494 -67.72246 21618 ft 385 kts 184°
2026-04-20 20:17 -54.02155 -67.71960 21179 ft 382 kts 184°
2026-04-20 20:17 -54.04793 -67.71678 20757 ft 379 kts 184°
2026-04-20 20:17 -54.07412 -67.71397 20326 ft 376 kts 184°
2026-04-20 20:18 -54.10013 -67.71118 19906 ft 373 kts 184°
2026-04-20 20:18 -54.12594 -67.70840 19494 ft 371 kts 184°
2026-04-20 20:18 -54.15162 -67.70563 19088 ft 368 kts 184°
2026-04-20 20:18 -54.17713 -67.70288 18689 ft 366 kts 184°
2026-04-20 20:19 -54.20248 -67.70015 18301 ft 364 kts 184°
2026-04-20 20:19 -54.22759 -67.69743 17918 ft 362 kts 184°
2026-04-20 20:19 -54.25269 -67.69472 17493 ft 360 kts 184°
2026-04-20 20:19 -54.27763 -67.69202 17074 ft 358 kts 184°
2026-04-20 20:20 -54.30247 -67.68932 16675 ft 356 kts 184°
2026-04-20 20:20 -54.32706 -67.68665 16290 ft 353 kts 184°
2026-04-20 20:20 -54.35144 -67.68400 15915 ft 350 kts 184°
2026-04-20 20:20 -54.37561 -67.68137 15535 ft 347 kts 184°
2026-04-20 20:21 -54.39932 -67.67878 15166 ft 345 kts 184°
2026-04-20 20:21 -54.42352 -67.67614 14794 ft 343 kts 184°
2026-04-20 20:21 -54.44690 -67.67358 14421 ft 341 kts 184°
2026-04-20 20:21 -54.47051 -67.67101 14060 ft 339 kts 184°
2026-04-20 20:22 -54.49398 -67.66843 13710 ft 337 kts 184°
2026-04-20 20:22 -54.51749 -67.66584 13166 ft 341 kts 184°
2026-04-20 20:22 -54.54138 -67.66322 12523 ft 347 kts 184°
2026-04-20 20:22 -54.56555 -67.66055 11972 ft 348 kts 184°
2026-04-20 20:23 -54.58960 -67.65790 11633 ft 344 kts 184°
2026-04-20 20:23 -54.61333 -67.65528 11244 ft 341 kts 184°
2026-04-20 20:23 -54.63709 -67.65266 10702 ft 344 kts 184°
2026-04-20 20:23 -54.66111 -67.64999 10135 ft 347 kts 184°
2026-04-20 20:24 -54.68523 -67.64728 9691 ft 345 kts 184°
2026-04-20 20:24 -54.70902 -67.64459 9322 ft 341 kts 184°
2026-04-20 20:24 -54.73262 -67.64195 8928 ft 338 kts 184°
2026-04-20 20:24 -54.75604 -67.63937 8589 ft 338 kts 183°
2026-04-20 20:25 -54.77952 -67.63764 8111 ft 334 kts 190°
2026-04-20 20:25 -54.80091 -67.64896 7666 ft 315 kts 218°
2026-04-20 20:25 -54.81604 -67.67414 7387 ft 296 kts 243°
2026-04-20 20:25 -54.82212 -67.70686 7103 ft 282 kts 269°
2026-04-20 20:26 -54.81857 -67.73938 6812 ft 275 kts 297°
2026-04-20 20:26 -54.80562 -67.76270 6594 ft 272 kts 328°
2026-04-20 20:26 -54.78725 -67.76944 6433 ft 277 kts
2026-04-20 20:26 -54.76976 -67.75667 6525 ft 277 kts 34°
2026-04-20 20:27 -54.75965 -67.72937 6737 ft 268 kts 72°
2026-04-20 20:27 -54.76021 -67.69757 6958 ft 269 kts 112°
2026-04-20 20:27 -54.77086 -67.67179 7122 ft 261 kts 150°
2026-04-20 20:27 -54.78689 -67.66130 7077 ft 239 kts 188°
2026-04-20 20:28 -54.80164 -67.66890 6975 ft 213 kts 227°
2026-04-20 20:28 -54.81102 -67.68801 7045 ft 210 kts 246°
2026-04-20 20:28 -54.81817 -67.71105 7022 ft 222 kts 248°
2026-04-20 20:28 -54.82270 -67.73644 7014 ft 221 kts 268°
2026-04-20 20:29 -54.82307 -67.76304 7057 ft 222 kts 270°
2026-04-20 20:29 -54.82346 -67.78979 6956 ft 223 kts 271°
2026-04-20 20:29 -54.82393 -67.81655 6566 ft 220 kts 270°
2026-04-20 20:29 -54.82502 -67.84300 5979 ft 220 kts 269°
2026-04-20 20:30 -54.82641 -67.86932 5526 ft 217 kts 269°
2026-04-20 20:30 -54.82768 -67.89495 5248 ft 209 kts 269°
2026-04-20 20:30 -54.82877 -67.91894 4901 ft 188 kts 270°
2026-04-20 20:30 -54.82976 -67.94042 4651 ft 172 kts 271°
2026-04-20 20:31 -54.83047 -67.95983 4404 ft 148 kts 272°
2026-04-20 20:31 -54.83110 -67.97712 4134 ft 141 kts 273°
2026-04-20 20:31 -54.83173 -67.99414 3946 ft 143 kts 272°
2026-04-20 20:31 -54.83236 -68.01124 3692 ft 142 kts 272°
2026-04-20 20:32 -54.83302 -68.02822 3455 ft 139 kts 271°
2026-04-20 20:32 -54.83364 -68.04478 3172 ft 138 kts 271°
2026-04-20 20:32 -54.83427 -68.06167 2958 ft 142 kts 272°
2026-04-20 20:32 -54.83488 -68.07877 2747 ft 141 kts 272°
2026-04-20 20:33 -54.83556 -68.09568 2495 ft 141 kts 273°
2026-04-20 20:33 -54.83621 -68.11287 2235 ft 145 kts 271°
2026-04-20 20:33 -54.83687 -68.13075 1992 ft 151 kts 269°
2026-04-20 20:33 -54.83763 -68.14899 1719 ft 152 kts 270°
2026-04-20 20:34 -54.83834 -68.16744 1515 ft 154 kts 269°
2026-04-20 20:34 -54.83894 -68.18593 1345 ft 153 kts 269°
2026-04-20 20:34 -54.84002 -68.20427 1202 ft 155 kts 256°
2026-04-20 20:34 -54.84599 -68.21992 1218 ft 159 kts 225°
2026-04-20 20:35 -54.85444 -68.23259 1215 ft 161 kts 221°
2026-04-20 20:35 -54.86327 -68.24467 1166 ft 163 kts 219°
2026-04-20 20:35 -54.87113 -68.25769 1185 ft 156 kts 241°
2026-04-20 20:35 -54.87416 -68.27521 1224 ft 149 kts 266°
2026-04-20 20:36 -54.87515 -68.29303 1171 ft 151 kts 268°
2026-04-20 20:36 -54.87598 -68.31131 1159 ft 150 kts 268°
2026-04-20 20:36 -54.87663 -68.32902 1203 ft 144 kts 269°
2026-04-20 20:36 -54.87727 -68.34659 1184 ft 146 kts 269°
2026-04-20 20:37 -54.87786 -68.36425 1222 ft 149 kts 272°
2026-04-20 20:37 -54.87370 -68.38040 1027 ft 152 kts 321°
2026-04-20 20:37 -54.86403 -68.38526 934 ft 143 kts
2026-04-20 20:37 -54.85425 -68.38182 756 ft 146 kts 21°
2026-04-20 20:38 -54.84668 -68.37019 565 ft 150 kts 56°
2026-04-20 20:38 -54.84481 -68.35194 371 ft 160 kts 88°
2026-04-20 20:38 -54.84471 -68.33269 279 ft 165 kts 80°
2026-04-20 20:38 -54.84401 -68.31312 92 ft 159 kts 82°
2026-04-20 20:39 -54.84328 -68.29574 87 ft 122 kts 86°
2026-04-20 20:39 -54.84288 -68.28493 83 ft 57 kts 86°
2026-04-20 20:39 -54.84267 -68.28257 86 ft 5 kts 112°
2026-04-20 20:39 -54.84287 -68.28267 86 ft 8 kts 237°
2026-04-20 20:40 -54.84291 -68.28449 84 ft 24 kts 270°
2026-04-20 20:40 -54.84303 -68.28841 85 ft 39 kts 266°
2026-04-20 20:40 -54.84321 -68.29327 88 ft 41 kts 266°
2026-04-20 20:40 -54.84340 -68.29832 89 ft 42 kts 265°
2026-04-20 20:41 -54.84361 -68.30354 83 ft 44 kts 266°
2026-04-20 20:41 -54.84379 -68.30813 96 ft 24 kts 264°
2026-04-20 20:41 -54.84351 -68.30947 87 ft 10 kts 331°
2026-04-20 20:41 -54.84269 -68.30965 87 ft 14 kts 356°
2026-04-20 20:42 -54.84166 -68.30979 88 ft 16 kts 354°
2026-04-20 20:42 -54.84103 -68.31021 87 ft 8 kts 289°
2026-04-20 20:42 -54.84092 -68.31086 87 ft 3 kts 267°
2026-04-20 20:42 -54.84091 -68.31140 85 ft 5 kts 293°
2026-04-20 20:43 -54.84057 -68.31166 87 ft 7 kts 348°
2026-04-20 20:43 -54.84029 -68.31176 87 ft 1 kts 348°
2026-04-20 20:43 -54.84028 -68.31176 87 ft 0 kts 348°
2026-04-20 20:47 -54.84029 -68.31176 87 ft 0 kts 348°
2026-04-20 20:48 -54.84028 -68.31176 87 ft 0 kts 348°